Weather History for Georgetown, DE

Change the Weather History Date:

Monday, August 19, 2013

  Actual Average Record
Temperature  
Mean Temperature 70 °F 76 °F  
Max Temperature 76 °F 85 °F 96 °F (1987)
Min Temperature 64 °F 66 °F 49 °F (1961)
Degree Days  
Heating Degree Days 0 0  
Month to date heating degree days 0 0  
Since 1 June heating degree days 0 13  
Since 1 July heating degree days 0 0  
Cooling Degree Days 5 11  
Month to date cooling degree days 162 217  
Year to date cooling degree days 1069 917  
Since 1 June cooling degree days 912 823  
Growing Degree Days 20 (Base 50)    
Moisture  
Dew Point 64 °F    
Average Humidity 79    
Maximum Humidity 93    
Minimum Humidity 64    
Precipitation  
Precipitation T in 0.14 in 5.95 in (1985)
Month to date precipitation 6.16 2.02  
Year to date precipitation 39.88 27.76  
Sea Level Pressure  
Sea Level Pressure 30.14 in    
Wind  
Wind Speed 3 mph (WSW)    
Max Wind Speed 10 mph    
Max Gust Speed 25 mph    
Visibility 10 miles    
Events Rain    
T = Trace of Precipitation, MM = Missing Value Source: NWS Daily Summary

Daily Weather History Graph

Daily Weather History Graph

Search for Another Location

Airport:

Trip Planner

Search our weather history database for the weather conditions in past years. The results will help you decide how hot, cold, wet, or windy it might be!

Date:

Astronomy

Aug. 19, 2013 Rise Set
Actual Time 6:19 AM EDT 7:50 PM EDT
Civil Twilight 5:51 AM EDT 8:18 PM EDT
Nautical Twilight 5:17 AM EDT 8:51 PM EDT
Astronomical Twilight 4:41 AM EDT 9:27 PM EDT
Moon 6:39 PM EDT (8/19) 4:35 AM EDT (8/19)
Length of Visible Light 14h 26m
Length of Day
13h 30m
Waxing Gibbous, 97% of the Moon is Illuminated
Aug 19
Waxing Gibbous
Aug 20
Full
Aug 28
Last Quarter
Sep 5
New
Sep 12
First Quarter

Hourly Weather History & Observations

Time (EDT) Temp. Dew Point Humidity Pressure Visibility Wind Dir Wind Speed Gust Speed Precip Events Conditions
12:54 AM 64.9 °F 62.1 °F 90% 30.18 in 10.0 mi West 3.5 mph - N/A   Clear
1:54 AM 64.9 °F 62.1 °F 90% 30.17 in 8.0 mi Calm Calm - N/A   Clear
2:54 AM 64.0 °F 62.1 °F 93% 30.17 in 9.0 mi Calm Calm - N/A   Clear
3:54 AM 64.0 °F 61.0 °F 90% 30.16 in 9.0 mi Calm Calm - N/A   Clear
4:54 AM 64.0 °F 61.0 °F 90% 30.17 in 8.0 mi Calm Calm - N/A   Clear
5:54 AM 64.0 °F 61.0 °F 90% 30.16 in 9.0 mi Calm Calm - N/A   Clear
6:54 AM 64.0 °F 62.1 °F 93% 30.16 in 5.0 mi SSW 3.5 mph - N/A   Clear
7:54 AM 66.9 °F 63.0 °F 87% 30.17 in 10.0 mi Calm Calm - N/A   Mostly Cloudy
8:54 AM 69.1 °F 64.0 °F 84% 30.17 in 8.0 mi Calm Calm - N/A   Mostly Cloudy
9:54 AM 72.0 °F 61.0 °F 68% 30.16 in 10.0 mi West 3.5 mph - N/A   Clear
10:54 AM 73.0 °F 61.0 °F 66% 30.16 in 10.0 mi West 5.8 mph - N/A   Mostly Cloudy
11:54 AM 73.9 °F 63.0 °F 68% 30.14 in 10.0 mi WSW 6.9 mph - N/A   Clear
12:54 PM 73.0 °F 64.0 °F 73% 30.13 in 10.0 mi SW 4.6 mph - 0.00 in Rain Light Rain
1:06 PM 73.4 °F 64.4 °F 73% 30.13 in 10.0 mi SSW 5.8 mph - 0.00 in Rain Light Rain
1:54 PM 73.9 °F 64.9 °F 73% 30.13 in 10.0 mi SSW 8.1 mph - 0.00 in   Overcast
2:50 PM 73.4 °F 66.2 °F 78% 30.14 in 10.0 mi WSW 6.9 mph - N/A   Overcast
2:54 PM 73.9 °F 66.0 °F 76% 30.13 in 10.0 mi West 5.8 mph - N/A   Overcast
3:54 PM 73.9 °F 66.0 °F 76% 30.11 in 10.0 mi Variable 4.6 mph - N/A   Mostly Cloudy
4:03 PM 75.2 °F 64.4 °F 69% 30.12 in 10.0 mi WSW 6.9 mph - N/A   Mostly Cloudy
4:10 PM 75.2 °F 66.2 °F 73% 30.11 in 10.0 mi West 6.9 mph - N/A   Mostly Cloudy
4:36 PM 75.2 °F 64.4 °F 69% 30.10 in 10.0 mi WSW 5.8 mph - N/A   Scattered Clouds
4:54 PM 75.0 °F 66.0 °F 73% 30.10 in 10.0 mi West 4.6 mph - N/A   Mostly Cloudy
5:54 PM 73.9 °F 64.9 °F 73% 30.10 in 10.0 mi WSW 4.6 mph - N/A   Overcast
6:54 PM 73.0 °F 64.9 °F 76% 30.11 in 10.0 mi SW 4.6 mph - N/A   Overcast
7:54 PM 73.0 °F 66.0 °F 79% 30.10 in 10.0 mi Calm Calm - N/A   Overcast
8:54 PM 72.0 °F 66.9 °F 84% 30.11 in 10.0 mi SSW 3.5 mph - N/A   Overcast
9:54 PM 71.1 °F 66.9 °F 87% 30.12 in 10.0 mi SW 3.5 mph - N/A   Overcast
10:54 PM 71.1 °F 66.9 °F 87% 30.12 in 10.0 mi SW 5.8 mph - 0.01 in   Overcast
11:27 PM 69.8 °F 66.2 °F 88% 30.12 in 10.0 mi SW 3.5 mph - N/A   Scattered Clouds
11:54 PM 70.0 °F 66.0 °F 87% 30.12 in 10.0 mi Calm Calm - N/A   Partly Cloudy